Change the Weather History Date:

Friday, February 7, 2014

  Actual Average Record
Temperature  
Mean Temperature 40 °F -  
Max Temperature 52 °F 58 °F 82 °F (1957)
Min Temperature 28 °F 35 °F 12 °F (1988)
Degree Days  
Heating Degree Days 25    
Moisture  
Dew Point 29 °F    
Average Humidity 69    
Maximum Humidity 89    
Minimum Humidity 43    
Precipitation  
Precipitation 0.00 in - - ()
Sea Level Pressure  
Sea Level Pressure 30.28 in    
Wind  
Wind Speed 5 mph (NNE)    
Max Wind Speed 9 mph    
Max Gust Speed -    
Visibility 8 miles    
Events      
Averages and records for this station are not official NWS values.
T = Trace of Precipitation, MM = Missing Value Source: NWS Daily Summary

Daily Weather History Graph

Daily Weather History Graph

Search for Another Location

Airport or City:

Trip Planner

Search our weather history database for the weather conditions in past years. The results will help you decide how hot, cold, wet, or windy it might be!

Date:

Astronomy

Feb. 07, 2014 Rise Set
Actual Time 6:35 AM CST 5:26 PM CST
Civil Twilight 6:10 AM CST 5:51 PM CST
Nautical Twilight 5:41 AM CST 6:20 PM CST
Astronomical Twilight 5:12 AM CST 6:48 PM CST
Moon 11:40 AM CST (2/7) 12:48 AM CST (2/7)
Length of Visible Light 11h 41m
Length of Day
10h 50m
First Quarter, 59% of the Moon is Illuminated
Feb 7
First Quarter
Feb 14
Full
Feb 22
Last Quarter
Mar 1
New
Mar 8
First Quarter

Hourly Weather History & Observations

Time (CST) Temp. Windchill Dew Point Humidity Pressure Visibility Wind Dir Wind Speed Gust Speed Precip Events Conditions
12:56 AM 30.0 °F 24.1 °F 27.0 °F 88% 30.31 in 7.0 mi North 5.8 mph - N/A   Clear
1:56 AM 28.9 °F 23.9 °F 26.1 °F 89% 30.30 in 7.0 mi North 4.6 mph - N/A   Clear
2:56 AM 30.0 °F 24.1 °F 26.1 °F 85% 30.29 in 7.0 mi North 5.8 mph - N/A   Clear
3:56 AM 28.9 °F 22.8 °F 26.1 °F 89% 30.29 in 6.0 mi North 5.8 mph - N/A   Clear
4:56 AM 28.9 °F 22.8 °F 26.1 °F 89% 30.30 in 6.0 mi NNE 5.8 mph - N/A   Clear
5:56 AM 28.9 °F 22.8 °F 26.1 °F 89% 30.32 in 6.0 mi North 5.8 mph - N/A   Clear
6:56 AM 28.9 °F 23.9 °F 26.1 °F 89% 30.34 in 4.0 mi North 4.6 mph - N/A   Clear
7:56 AM 30.9 °F 25.2 °F 27.0 °F 85% 30.33 in 5.0 mi NE 5.8 mph - N/A   Clear
8:56 AM 35.1 °F 30.1 °F 28.0 °F 76% 30.34 in 6.0 mi NNE 5.8 mph - N/A   Haze
9:56 AM 41.0 °F 37.1 °F 30.0 °F 65% 30.35 in 10.0 mi ENE 5.8 mph - N/A   Clear
10:56 AM 46.0 °F 42.5 °F 30.9 °F 56% 30.35 in 10.0 mi NNE 6.9 mph - N/A   Clear
11:56 AM 48.0 °F - 30.0 °F 50% 30.31 in 10.0 mi NE 8.1 mph - N/A   Clear
12:56 PM 48.9 °F - 28.9 °F 46% 30.27 in 10.0 mi North 8.1 mph - N/A   Clear
1:56 PM 50.0 °F - 28.9 °F 44% 30.26 in 10.0 mi NNE 9.2 mph - N/A   Clear
2:56 PM 52.0 °F - 30.0 °F 43% 30.23 in 10.0 mi NNE 8.1 mph - N/A   Clear
3:56 PM 50.0 °F - 30.0 °F 46% 30.23 in 10.0 mi NNE 4.6 mph - N/A   Clear
4:56 PM 48.0 °F - 30.0 °F 50% 30.24 in 10.0 mi NNE 4.6 mph - N/A   Clear
5:56 PM 45.0 °F - 30.9 °F 58% 30.25 in 10.0 mi Calm Calm - N/A   Clear
6:56 PM 42.1 °F - 32.0 °F 67% 30.24 in 10.0 mi Calm Calm - N/A   Clear
7:56 PM 42.1 °F 40.2 °F 30.0 °F 62% 30.24 in 10.0 mi North 3.5 mph - N/A   Clear
8:56 PM 37.9 °F 34.4 °F 32.0 °F 79% 30.24 in 10.0 mi North 4.6 mph - N/A   Partly Cloudy
9:56 PM 39.9 °F 35.8 °F 30.9 °F 70% 30.23 in 10.0 mi North 5.8 mph - N/A   Clear
10:56 PM 41.0 °F 39.0 °F 30.0 °F 65% 30.23 in 10.0 mi North 3.5 mph - N/A   Scattered Clouds
11:56 PM 42.1 °F - 30.9 °F 65% 30.22 in 10.0 mi Calm Calm - N/A   Scattered Clouds